Theta_e
345 346 341 342 342 343 342 343 343 342 342 341 342 342 341 340 340 340 340 340 342 341 341 341 340 340 339 339 339 338 337 338 340 340 340 340 340 339 339 335 332 333 333 333 332 328 325 322 322 323 326 328 329 330 331 333 334 335 335 333 333 334 335 333 328 327 330 329 327 324 322 323 323 327 334 337 339 340 341 341 341 340 340 339 337
345 346 341 342 343 343 343 344 343 343 342 342 342 342 342 340 340 340 340 340 341 341 341 340 340 340 339 339 339 338 337 337 339 340 340 340 339 339 338 337 337 338 337 335 331 328 326 324 323 322 323 323 323 323 324 326 328 331 333 333 333 332 333 330 329 333 336 336 335 333 330 329 329 327 328 331 334 336 340 341 340 340 341 341 339
346 346 341 342 343 344 344 344 343 344 342 343 343 342 343 340 339 339 340 340 341 341 340 340 340 340 339 339 339 338 337 336 337 338 339 338 339 339 339 338 339 338 337 335 330 327 324 323 323 322 322 322 323 324 324 323 322 325 328 331 333 332 333 329 331 336 336 337 337 338 337 334 332 330 328 327 327 329 332 335 338 339 340 341 340
347 346 342 342 343 344 344 344 343 344 342 343 343 343 342 340 339 339 340 340 340 340 340 340 340 340 340 339 338 337 336 335 335 337 338 337 338 338 338 338 338 338 336 334 331 327 323 322 322 320 320 319 319 319 323 325 323 322 322 325 330 332 332 331 332 336 336 336 337 338 339 337 334 332 331 329 327 327 327 328 330 334 336 338 339
346 346 343 342 343 344 345 345 344 343 343 343 343 343 342 339 339 338 339 339 340 340 340 340 340 340 339 339 337 337 335 335 335 336 336 337 337 337 337 337 337 336 335 334 333 331 327 324 322 320 318 317 317 314 316 325 325 322 322 321 326 330 332 332 332 334 336 336 337 338 339 338 337 336 335 333 332 332 331 328 327 331 332 333 335
345 345 343 342 343 344 344 345 344 344 343 343 343 343 341 339 339 339 339 339 340 340 340 340 340 340 339 338 337 336 334 334 335 335 335 336 337 336 336 336 336 335 334 333 332 331 328 323 320 319 316 315 317 311 311 323 325 324 323 320 322 327 332 332 331 334 336 336 337 338 338 338 337 337 337 336 336 335 335 331 328 332 332 331 331
344 345 344 343 344 344 344 345 344 344 344 343 343 343 341 340 339 339 339 339 340 340 340 340 340 339 338 338 337 336 333 333 333 333 334 334 335 336 335 335 335 334 334 333 331 330 326 322 321 320 316 312 311 305 306 315 320 322 320 317 318 322 329 330 332 335 336 336 336 337 337 338 336 337 336 335 336 335 336 332 330 331 333 331 329
343 344 344 344 345 344 343 345 344 344 344 343 343 343 342 340 340 339 339 339 339 339 340 339 339 339 338 338 337 335 333 332 331 331 332 332 334 335 335 335 335 335 335 334 331 328 326 325 323 320 316 308 302 301 301 304 306 309 309 308 312 321 327 328 332 335 335 335 334 336 337 337 336 336 335 333 333 333 334 332 331 332 333 332 330
343 342 343 344 345 345 343 344 344 343 344 344 343 343 342 341 340 339 339 339 339 339 339 339 339 338 338 337 337 335 332 331 329 330 331 331 332 333 334 336 336 336 335 333 330 326 326 326 324 320 316 306 299 299 299 300 300 300 301 300 309 322 326 328 333 333 334 334 332 334 336 336 336 335 334 332 330 329 329 331 332 332 333 333 332
342 342 343 343 344 344 343 343 343 343 343 343 343 343 342 341 340 340 339 339 339 338 339 339 338 338 337 337 337 335 333 331 330 329 330 331 332 333 334 336 336 335 332 331 329 326 326 325 323 319 315 306 298 299 299 300 300 300 300 302 313 323 326 329 332 332 333 334 332 334 335 335 334 334 333 333 331 325 325 330 332 332 333 333 333
342 342 343 342 343 343 343 342 342 341 341 343 343 343 343 341 341 340 339 339 338 338 338 339 338 338 338 337 337 334 333 333 332 329 328 330 333 333 333 335 335 332 330 331 329 326 325 323 320 317 315 306 298 299 299 299 300 301 302 308 319 325 327 330 331 331 332 332 332 333 334 333 332 333 333 333 330 324 323 327 330 331 331 332 334
341 342 342 342 343 343 342 342 341 340 341 342 342 342 342 341 341 340 340 339 338 337 337 338 338 337 337 337 336 334 334 334 333 330 329 331 333 333 334 334 332 329 329 331 329 327 325 323 319 315 314 307 299 299 299 300 300 301 305 312 320 324 326 329 330 329 330 330 330 331 334 332 330 333 333 331 328 324 324 324 328 331 332 333 333
341 342 342 341 341 342 341 341 341 340 341 341 341 341 341 340 340 340 340 339 338 337 336 337 337 336 336 336 335 334 334 335 334 333 331 332 333 333 334 333 330 329 330 330 329 328 326 323 320 316 313 308 300 299 300 300 301 301 304 311 318 323 326 328 329 329 329 328 329 332 333 330 328 331 332 330 327 325 323 320 324 329 331 333 333
340 341 341 340 340 339 339 340 341 340 341 340 340 340 340 341 340 340 340 339 338 337 336 335 336 335 334 334 335 335 335 335 335 334 332 332 333 334 334 331 330 331 330 330 329 328 327 323 320 316 313 309 302 298 299 300 301 301 303 311 320 324 327 328 327 327 329 328 330 332 330 328 328 331 331 330 327 325 324 321 322 322 323 325 326
339 339 339 340 340 338 337 339 341 340 340 340 340 340 340 340 340 340 340 339 338 337 336 335 335 335 334 334 335 336 336 336 335 335 334 333 333 334 333 331 331 332 331 330 329 329 328 324 320 317 314 310 304 299 299 300 300 301 301 311 324 328 327 328 327 327 328 328 329 331 329 327 329 331 330 330 327 326 325 324 324 323 321 320 320
337 338 338 340 340 339 337 338 340 339 339 339 339 340 339 340 340 341 340 339 339 338 337 335 335 335 334 335 336 336 336 336 335 335 335 334 334 333 333 332 332 332 331 330 330 329 328 326 324 320 315 312 306 300 299 300 300 301 300 305 320 327 326 326 327 326 326 327 328 329 329 328 329 331 330 329 328 327 326 325 324 323 320 318 319
333 336 336 338 339 339 338 338 338 338 338 338 339 339 339 340 340 340 340 339 339 338 337 336 334 334 334 335 335 335 335 335 335 334 334 334 334 334 333 332 332 332 331 331 330 329 328 328 326 322 317 313 308 302 299 300 300 301 301 300 309 319 322 324 323 323 325 327 327 327 328 328 328 330 330 329 328 327 327 325 322 321 318 316 318
331 332 332 335 338 338 339 339 338 337 337 336 336 337 338 338 339 340 339 339 339 338 337 335 334 333 333 333 334 334 335 334 334 334 334 334 334 334 333 333 333 332 331 331 330 329 329 328 326 322 318 314 310 305 300 300 300 300 301 300 302 308 313 317 320 322 324 325 326 326 326 327 328 328 329 328 327 326 324 321 320 321 319 317 317
327 327 327 331 335 337 338 339 339 339 338 337 336 336 336 336 337 339 339 339 339 338 337 335 333 332 332 331 332 332 333 333 334 334 334 334 334 334 334 333 333 332 331 331 331 329 329 328 325 322 318 315 312 307 301 300 300 300 300 300 301 301 303 308 314 318 319 323 324 322 323 325 326 327 328 326 325 322 318 319 321 322 319 317 319
321 321 321 324 328 332 336 337 339 339 339 339 338 338 338 337 336 337 338 338 338 338 337 336 334 332 331 331 332 332 332 332 333 334 333 333 334 334 333 333 333 332 332 331 330 329 329 328 325 322 319 316 314 311 304 300 299 299 300 300 300 300 300 302 305 307 308 312 313 311 317 323 325 324 326 324 324 322 317 319 322 322 320 320 321
318 318 318 319 321 325 331 335 337 338 338 339 340 340 340 339 337 336 336 336 337 337 337 337 335 333 332 331 331 331 332 333 334 334 333 332 332 333 333 333 333 332 331 330 330 329 329 327 324 322 320 318 317 315 308 302 299 299 300 300 300 300 300 300 300 300 300 302 301 301 307 316 321 321 323 324 324 323 319 319 321 321 322 321 322
317 317 317 317 319 321 324 328 332 336 337 338 339 339 340 339 338 336 336 335 335 335 336 336 336 335 334 333 332 332 333 335 335 335 334 333 332 332 332 332 332 332 331 330 330 329 328 326 324 323 321 319 318 317 314 310 304 300 299 299 300 300 300 300 300 300 299 299 298 299 299 305 312 314 319 324 323 323 321 320 321 321 322 322 321
316 317 317 316 317 320 322 323 328 333 335 337 338 338 338 338 338 337 337 336 335 334 335 336 336 336 336 335 334 334 335 336 335 335 335 333 332 332 331 331 331 331 330 330 330 329 328 326 325 324 322 321 319 318 317 316 312 306 302 299 299 300 300 300 300 300 299 299 298 299 298 299 302 304 311 319 320 321 322 321 321 321 321 322 321
316 317 317 316 315 317 319 321 325 330 333 335 336 336 337 338 338 338 338 338 337 336 335 337 337 337 337 336 336 335 335 335 335 335 334 333 332 332 331 331 330 330 330 330 330 329 328 326 325 324 324 322 321 319 318 318 317 314 308 302 299 299 300 299 299 300 299 299 298 298 298 298 298 299 302 307 311 315 321 323 321 321 321 322 321
316 316 316 316 316 316 316 318 321 326 331 334 334 335 336 337 338 338 338 337 337 336 336 337 337 337 336 336 336 335 335 335 335 335 334 333 333 333 332 331 330 330 330 330 330 329 328 327 325 324 324 324 322 321 320 319 318 317 315 309 302 299 299 299 299 299 299 299 298 298 298 298 299 298 298 300 302 305 313 322 323 320 321 322 321
315 315 315 316 317 316 316 316 317 320 327 332 333 334 335 336 337 337 336 336 336 336 336 337 337 336 336 336 336 335 335 335 334 334 334 333 333 333 332 332 331 330 330 330 330 330 329 328 325 324 324 324 322 320 320 319 317 317 316 314 309 304 301 299 298 298 299 299 299 298 298 298 298 299 299 299 300 299 302 314 323 323 321 323 322
315 315 316 317 316 316 316 317 318 319 323 329 332 333 335 336 337 337 336 336 336 336 335 336 335 335 335 335 335 335 335 334 334 334 334 333 333 333 332 332 332 331 330 330 331 330 329 328 326 325 325 324 321 320 319 317 317 316 315 315 313 311 307 304 302 299 299 299 299 299 299 298 298 298 298 298 299 300 298 305 318 323 322 323 322
314 315 316 316 316 316 317 319 320 317 320 329 332 332 334 336 336 336 336 335 335 335 334 334 334 334 335 334 334 334 334 334 334 334 334 333 332 332 332 332 331 331 331 330 331 330 329 328 327 325 325 324 322 320 319 318 317 315 314 313 312 312 310 309 307 304 301 300 300 299 299 298 298 298 298 298 298 299 299 299 308 318 322 322 322
313 314 315 317 316 317 318 321 322 319 322 331 333 333 334 335 335 334 334 334 334 334 333 333 332 333 333 333 333 332 333 333 334 334 334 333 332 332 332 331 331 331 330 329 329 330 329 327 327 326 324 323 322 320 320 319 318 316 315 313 312 312 311 311 310 308 306 304 303 302 301 299 298 298 297 297 297 297 299 298 301 308 313 315 320
313 314 315 317 318 318 319 321 324 324 326 330 332 333 334 335 334 333 332 332 332 332 331 331 331 331 331 331 331 331 332 332 333 333 333 332 332 332 331 330 330 330 329 328 328 328 328 327 327 326 324 323 322 321 320 320 319 318 316 314 313 313 312 312 310 309 308 307 306 305 304 302 300 299 297 296 296 296 297 297 298 300 300 302 311
313 315 317 318 319 319 320 322 325 327 328 330 332 333 333 333 332 330 330 330 330 330 330 330 329 329 330 330 330 330 331 332 332 332 331 331 331 331 330 329 329 329 328 328 328 328 328 327 326 326 325 323 322 321 321 320 320 319 317 315 314 314 313 312 311 310 308 307 306 305 304 304 302 301 299 297 297 296 296 296 296 297 297 298 301
313 315 317 318 319 320 321 324 325 327 329 330 331 331 330 331 329 329 328 328 328 328 329 328 328 328 328 329 329 329 331 331 330 330 329 329 329 329 328 328 328 327 327 327 327 327 327 326 325 325 325 323 321 321 321 320 319 319 318 316 315 315 314 312 312 311 309 307 306 305 304 303 303 303 300 299 300 298 296 296 296 296 296 297 297
313 316 317 317 319 320 321 323 325 326 328 329 329 328 327 328 328 327 326 326 327 326 326 326 325 326 327 327 328 329 329 329 329 328 328 328 327 327 326 326 326 326 326 326 326 326 326 325 324 324 324 323 322 321 321 321 320 319 318 317 316 315 314 313 312 311 309 307 305 305 304 303 302 302 301 302 301 299 297 296 296 296 295 296 297
314 317 317 317 318 321 321 322 323 325 326 326 327 326 326 326 326 325 325 325 325 324 324 323 324 325 326 326 327 327 326 326 326 326 326 325 325 325 325 325 325 326 326 325 325 324 324 324 324 323 323 323 322 322 322 321 320 319 317 316 316 315 313 312 311 310 308 306 304 304 302 301 300 300 301 301 300 299 298 297 297 296 296 296 295
316 316 317 317 318 319 321 322 322 324 325 325 326 325 325 325 325 324 324 324 323 323 323 322 322 323 323 324 324 324 324 323 323 324 325 324 324 324 324 324 324 324 324 324 323 323 322 322 322 321 320 321 321 321 321 321 320 318 317 316 315 314 312 311 309 308 306 304 303 302 300 299 299 299 300 301 300 300 300 300 300 299 299 298 297
315 314 315 316 317 318 320 321 322 323 324 325 325 324 324 324 324 324 323 322 322 322 321 320 321 321 321 321 321 321 321 321 321 322 323 323 323 323 322 322 322 322 322 321 321 320 320 320 320 318 317 317 317 317 318 318 319 318 317 315 314 312 311 309 307 305 305 303 302 301 300 300 301 301 301 301 300 300 300 300 300 301 301 301 300
313 313 315 316 317 319 320 321 322 322 322 323 323 323 322 322 322 321 320 320 319 319 318 318 319 319 319 319 318 318 317 316 318 319 320 319 318 317 317 317 317 318 319 318 318 317 316 316 316 315 313 311 311 311 312 314 314 316 315 313 312 310 309 307 305 305 304 302 301 301 300 300 301 301 301 300 297 296 296 296 297 299 299 300 301
312 313 314 314 315 317 319 321 321 321 321 321 322 321 321 320 320 319 318 318 317 316 315 316 317 317 317 317 316 316 314 313 313 314 314 313 312 311 310 310 311 313 313 313 312 312 312 311 310 309 309 308 307 306 307 310 310 311 313 312 311 309 307 305 304 304 302 302 301 298 298 299 300 299 299 298 295 293 292 292 293 294 295 297 299
312 313 313 312 313 314 316 318 319 320 319 319 319 318 317 317 316 316 316 316 315 315 314 315 315 315 315 314 315 314 313 311 310 310 311 310 309 308 308 309 310 310 310 310 309 308 308 307 306 306 305 304 303 303 305 308 309 309 311 311 309 307 305 305 304 303 301 302 299 293 294 298 297 295 294 294 293 290 290 290 290 290 291 292 295
311 311 310 310 311 311 312 313 314 315 316 316 315 315 314 313 313 313 313 312 312 312 312 313 312 312 312 312 313 312 311 311 309 309 310 310 309 308 308 308 309 309 309 308 307 307 306 306 304 302 300 299 300 302 305 307 307 308 309 309 308 305 303 303 303 302 302 301 297 291 291 294 294 292 291 291 290 289 289 289 289 289 289 290 291
309 309 308 309 310 310 310 310 310 311 312 311 311 312 312 311 310 309 307 306 307 309 309 309 309 308 309 309 310 309 309 309 308 308 308 307 307 306 306 306 306 307 307 306 306 306 306 305 303 298 294 295 296 298 302 305 305 305 307 307 305 302 302 303 302 301 301 299 296 293 290 291 293 292 290 289 289 289 289 289 289 289 289 289 289
307 308 308 308 309 309 309 309 308 308 309 308 308 307 307 308 308 306 305 304 305 306 305 304 304 304 305 305 305 306 306 306 305 305 304 304 303 302 301 301 302 303 304 304 305 305 305 304 303 299 294 292 292 294 297 300 301 302 303 305 304 302 300 301 301 301 300 298 297 295 292 290 292 293 291 289 289 288 289 289 289 289 289 289 289
305 306 307 308 308 308 307 307 307 307 307 307 307 306 305 307 309 307 306 304 301 301 301 300 300 301 301 301 301 302 302 302 302 301 301 300 299 298 298 297 298 298 299 301 302 303 303 302 301 300 297 294 291 291 292 295 298 301 303 305 305 305 302 297 296 298 298 297 297 296 294 290 290 293 293 289 289 289 288 289 289 289 289 289 289
304 305 306 306 307 307 307 306 307 307 307 307 307 307 306 307 307 305 304 302 299 298 298 298 298 298 298 299 299 299 299 299 299 299 299 298 297 295 294 294 293 294 294 295 296 298 298 298 298 298 298 295 292 291 291 291 294 298 302 303 302 304 302 296 294 295 296 295 294 294 295 291 289 293 294 289 289 289 288 288 289 288 289 289 289
303 303 304 305 306 306 306 306 306 306 306 307 307 308 307 305 303 301 299 298 296 297 296 296 296 297 297 297 297 297 297 297 296 296 295 294 293 292 291 291 290 290 290 290 291 292 293 293 294 294 294 294 293 292 291 290 292 293 296 298 299 300 298 294 293 293 293 292 291 292 293 291 288 291 292 289 288 289 288 288 288 288 289 289 289
302 303 303 303 305 305 304 305 306 306 306 306 306 307 306 303 300 298 296 295 294 294 293 293 294 294 294 293 293 293 293 293 292 292 291 291 290 290 289 289 289 289 289 289 289 289 289 289 290 291 291 291 291 291 290 290 290 291 292 294 295 296 295 294 293 292 291 290 290 291 292 290 289 289 290 289 288 288 288 288 288 288 289 289 289
302 302 302 303 303 303 304 304 305 305 303 303 303 304 302 300 298 297 295 294 292 291 291 291 291 291 290 290 290 290 290 290 290 290 290 289 289 289 289 289 288 288 288 288 288 288 288 288 288 288 288 288 288 288 288 288 289 289 290 291 291 292 293 292 292 292 292 290 289 290 290 289 289 289 289 289 288 288 288 288 288 288 289 290 290
301 301 301 301 302 302 303 304 304 303 301 300 301 300 300 299 298 296 293 292 291 290 289 289 288 288 289 289 289 289 289 289 289 289 288 288 288 288 288 288 288 288 288 287 287 287 287 287 287 287 287 287 287 287 287 287 287 288 288 289 289 290 291 291 291 290 290 291 290 289 289 288 288 289 289 288 288 288 288 288 288 288 289 290 290
300 300 300 300 301 301 302 303 303 302 301 300 300 299 299 299 297 294 292 291 290 289 288 287 287 288 288 287 288 288 288 288 288 288 288 288 288 287 287 287 287 287 287 287 287 287 287 287 287 287 287 287 286 286 286 286 286 287 287 287 287 288 288 289 289 288 288 291 290 289 288 288 288 288 288 287 288 287 288 288 288 288 289 289 289
299 299 299 300 300 300 301 302 301 301 300 299 299 299 299 298 295 293 291 289 289 288 287 287 287 287 287 287 287 287 287 287 287 287 287 287 287 287 287 287 286 286 286 286 286 286 286 286 286 286 286 286 286 286 286 285 285 286 286 286 286 287 287 288 288 287 287 289 289 288 287 287 287 287 286 286 287 287 288 288 288 289 289 288 289
298 298 298 299 299 299 300 300 300 299 299 298 298 298 297 296 294 292 290 289 289 288 288 287 287 287 286 286 286 286 286 286 286 286 286 286 286 286 286 286 286 286 286 286 286 286 286 286 285 285 285 285 285 285 285 285 285 285 285 285 286 286 287 287 286 286 287 287 288 287 287 287 287 287 286 286 286 287 288 287 288 289 289 289 289
Wind_Speed
11 11 15 16 14 14 12 11 10 10 10 10 10 9 8 9 10 11 12 13 13 14 13 13 13 13 13 13 13 12 12 12 12 12 12 12 13 14 15 14 14 14 15 15 15 15 15 15 15 15 15 15 14 13 13 12 12 12 12 12 12 13 13 13 14 16 17 17 17 16 17 16 17 17 16 15 14 15 16 15 14 15 15 13 11
14 11 15 17 15 14 12 11 10 10 10 10 10 10 9 8 9 10 11 12 12 12 11 11 12 12 12 12 11 11 10 11 12 12 12 12 12 13 13 13 13 13 14 15 15 16 15 14 14 13 12 12 12 12 12 12 11 11 11 11 12 12 13 13 14 15 16 16 16 16 15 15 16 16 16 15 14 15 16 16 16 16 15 14 13
16 11 15 17 15 14 12 11 10 9 10 10 10 10 9 8 9 9 10 11 11 11 10 11 11 11 11 11 10 10 9 10 11 12 11 11 11 12 12 12 12 12 14 15 15 15 15 15 14 13 12 11 9 9 9 10 10 10 10 10 10 11 11 12 13 14 14 14 14 14 13 13 15 15 15 15 14 15 15 15 15 15 15 15 15
14 10 14 17 15 14 12 11 10 9 10 9 9 9 9 8 8 9 9 10 10 10 10 10 10 10 9 9 9 9 8 9 11 11 11 10 9 10 10 11 11 12 14 14 14 13 13 15 15 15 13 12 10 8 7 7 7 8 8 8 8 9 10 10 12 13 13 12 12 11 9 11 14 14 14 15 15 15 15 14 13 13 13 14 15
14 10 12 17 15 14 12 11 11 10 10 9 9 9 9 8 8 8 8 9 10 11 10 10 9 9 9 8 8 8 7 9 10 11 10 10 9 9 9 11 11 12 14 14 14 13 13 15 16 16 14 12 11 10 7 5 5 6 7 7 7 7 8 9 10 11 12 13 12 9 8 10 12 13 13 14 15 15 16 15 13 13 12 12 13
13 9 10 16 15 14 12 11 10 10 10 10 9 9 8 8 8 8 8 8 9 10 10 9 9 8 8 8 8 7 7 8 9 10 10 10 9 8 9 11 12 13 14 15 15 14 14 16 17 17 16 13 11 10 8 5 4 4 5 5 5 5 7 8 10 11 13 14 13 10 8 9 10 12 12 13 13 13 14 15 14 14 13 12 13
11 7 9 13 12 13 12 10 10 9 10 10 9 9 8 8 7 7 7 8 8 8 9 9 8 7 8 8 7 7 7 8 8 8 9 9 8 9 10 11 14 15 14 15 16 15 16 17 18 18 17 14 11 10 9 7 5 4 3 3 3 5 6 8 11 13 14 13 11 11 10 8 10 11 11 11 12 11 12 14 14 13 13 12 12
11 8 10 11 9 11 11 9 8 8 8 9 9 8 8 7 7 6 6 7 7 7 8 8 7 7 7 7 7 7 8 8 8 8 8 8 8 9 11 12 14 14 14 14 14 14 16 17 17 18 17 15 12 11 10 9 7 6 4 2 3 5 6 9 11 12 13 11 9 11 10 9 10 10 11 11 11 10 10 11 13 13 13 12 12
11 10 10 11 10 9 10 9 7 7 7 8 8 8 8 7 7 6 6 6 6 7 7 7 7 6 6 6 6 6 7 8 9 8 7 7 8 8 11 12 12 12 12 12 13 15 16 16 17 17 17 14 13 12 11 10 9 8 6 4 5 7 8 9 10 12 13 11 11 11 9 9 9 10 11 10 10 11 10 10 12 13 12 12 12
11 10 10 11 10 8 9 10 7 7 6 6 7 8 8 7 7 6 7 6 6 6 7 7 7 6 6 5 5 5 6 8 8 7 6 7 7 7 9 10 10 9 10 11 12 15 16 16 16 16 16 14 13 13 12 12 10 10 8 8 9 10 10 10 11 11 12 10 12 13 10 10 10 10 10 9 10 11 11 11 11 11 11 11 10
10 10 11 9 9 8 8 9 8 7 6 6 6 7 7 7 6 6 7 7 6 6 6 6 6 6 5 5 4 4 5 7 8 8 7 7 7 7 7 8 8 8 10 11 12 15 16 16 17 16 15 13 13 13 13 12 11 11 10 11 12 12 11 11 11 9 10 8 10 13 11 10 12 11 10 9 11 13 12 11 10 10 9 9 9
10 8 8 7 7 9 8 9 11 9 7 6 6 7 6 6 6 6 7 7 7 7 6 6 6 6 5 4 3 3 4 5 7 8 7 7 6 6 7 7 7 9 10 11 13 16 16 17 17 16 15 12 12 12 13 13 11 11 12 12 12 11 10 12 11 9 10 8 9 12 10 9 11 12 12 10 12 13 12 11 11 10 9 8 9
10 7 6 5 5 6 6 9 12 10 8 7 7 6 6 6 6 5 6 7 7 7 6 6 7 7 6 5 4 3 3 4 6 7 7 6 5 6 7 6 8 9 9 11 14 16 17 17 17 17 15 12 11 12 12 13 12 12 12 12 12 11 11 12 11 9 10 9 10 11 9 9 10 11 11 11 11 12 12 11 11 10 10 9 9
10 10 8 3 2 3 4 9 12 10 8 7 7 6 6 5 5 5 6 6 7 6 5 6 7 7 7 6 4 3 3 3 5 5 5 5 4 6 6 7 8 8 8 11 14 16 18 18 17 17 16 13 11 12 13 13 13 12 12 12 13 13 13 14 12 10 11 10 10 9 8 10 11 10 10 11 11 11 12 12 11 10 9 9 9
11 11 9 5 2 1 4 11 13 11 10 8 6 6 6 6 5 6 6 6 5 5 5 5 6 5 5 5 3 2 2 2 3 4 4 4 4 5 5 6 7 6 6 10 13 16 19 19 19 18 17 15 11 11 12 12 13 13 12 12 13 13 13 13 12 9 10 10 11 8 7 9 11 10 10 11 11 11 13 13 12 12 10 10 10
12 13 10 9 7 2 2 11 13 11 10 9 8 6 6 6 6 6 6 6 6 6 5 5 5 5 4 4 3 1 1 1 2 3 3 3 3 4 5 5 5 4 5 9 13 15 17 19 21 20 18 16 12 11 12 13 13 13 13 12 12 13 12 12 10 8 9 9 9 8 8 8 10 11 10 11 11 12 13 12 12 12 11 11 10
10 12 11 10 10 8 5 7 10 9 8 8 8 7 7 6 6 7 6 6 6 6 6 5 4 4 4 3 2 1 1 1 1 2 2 2 3 4 5 4 3 4 5 8 11 13 16 18 20 20 19 17 13 11 11 12 13 13 13 12 11 10 10 11 11 10 8 8 7 7 8 8 9 10 10 10 10 10 11 11 12 12 12 12 11
6 7 7 10 11 11 10 7 6 5 6 7 7 7 7 6 5 6 6 6 6 6 6 5 3 3 3 3 3 3 2 0 1 2 2 2 3 4 4 3 3 2 4 7 10 12 15 17 18 18 18 17 14 11 9 10 12 12 12 12 10 9 9 10 11 9 4 4 5 5 5 7 8 11 12 11 9 10 10 11 11 11 12 12 12
8 5 3 5 9 11 11 9 7 6 5 6 6 6 7 7 7 5 5 5 6 7 7 5 3 2 3 3 4 4 3 3 1 0 2 3 3 4 4 3 2 1 2 5 8 10 14 15 16 17 16 15 14 11 9 9 10 10 11 11 10 10 9 8 8 6 2 2 3 4 3 4 7 12 13 12 11 11 12 12 11 12 12 12 12
9 8 8 6 2 7 10 10 10 9 9 8 6 5 6 6 7 7 6 6 5 6 7 5 3 3 3 4 4 4 4 4 3 2 2 3 3 4 4 4 3 1 1 3 6 9 12 13 14 15 15 14 14 13 10 9 9 9 9 9 10 11 9 8 7 5 4 3 4 4 3 3 5 10 12 11 11 12 13 13 12 12 12 13 12
8 8 7 7 6 2 5 9 11 10 10 11 9 6 6 6 7 8 8 7 6 5 6 6 5 4 4 4 4 4 4 3 3 2 2 3 3 3 4 4 3 2 1 2 4 8 10 10 12 14 15 15 16 15 12 10 9 9 9 9 9 9 9 8 8 7 8 7 7 6 4 2 2 6 11 11 11 12 13 13 12 11 12 13 12
7 6 5 4 4 3 3 5 10 12 11 11 10 6 3 5 5 7 8 7 6 5 5 5 5 5 4 4 4 3 3 3 3 3 2 2 3 3 3 3 3 3 2 1 3 7 8 9 11 14 15 16 16 16 14 12 9 8 7 8 8 8 8 7 8 8 8 8 8 8 6 4 1 2 7 9 9 10 11 12 11 10 10 11 12
5 6 4 1 2 4 4 4 7 12 13 12 11 8 2 2 2 5 7 6 5 6 5 4 5 5 4 4 4 2 3 4 4 3 3 3 3 3 3 3 3 3 2 0 2 5 6 8 11 12 14 14 13 14 14 14 11 9 7 6 6 6 7 6 7 7 8 8 8 8 8 7 5 3 4 6 7 8 9 11 11 10 8 8 11
5 4 2 2 2 4 6 7 7 9 12 14 12 10 6 2 2 4 7 6 6 6 5 5 5 5 5 4 3 3 5 5 3 3 4 4 4 3 3 4 4 3 2 1 1 3 5 8 10 10 11 11 10 9 10 11 11 10 8 6 5 5 5 6 6 6 7 8 7 7 8 7 7 6 5 6 7 7 7 8 9 10 9 8 10
3 1 1 3 3 3 5 7 7 8 11 16 15 11 9 7 5 5 6 8 8 7 7 7 6 6 6 5 5 5 5 4 3 3 4 4 5 4 3 3 4 3 3 2 1 2 5 8 9 8 7 8 8 7 7 8 9 9 8 6 5 4 4 5 6 6 6 7 8 7 7 7 7 7 7 7 8 7 6 7 8 9 9 9 10
3 3 3 3 5 2 2 4 5 7 9 14 16 12 10 8 7 7 6 6 6 7 8 9 8 7 6 5 6 5 4 3 3 3 3 4 4 4 2 1 2 3 3 3 2 2 3 6 8 6 4 6 7 7 7 7 8 9 9 7 5 5 5 5 5 6 7 7 7 7 7 7 7 7 7 7 7 7 5 5 7 8 8 7 6
5 5 4 4 5 4 2 3 2 5 8 11 12 10 8 6 6 9 8 7 7 7 8 7 7 7 6 6 6 6 5 5 4 3 3 3 3 3 2 1 1 1 2 4 4 2 2 4 6 4 4 7 7 7 8 9 9 10 10 9 7 7 6 6 7 6 7 7 7 8 8 9 8 8 7 7 7 6 6 3 3 5 7 6 5
5 6 5 5 5 7 6 6 5 1 8 11 10 8 7 6 7 9 9 10 11 10 9 8 7 6 6 6 6 7 6 5 5 4 3 3 3 4 4 3 2 2 3 5 5 4 5 4 4 3 5 7 7 8 9 9 8 9 10 10 9 9 9 8 8 7 7 8 9 10 10 10 10 10 9 9 8 7 7 4 3 3 4 6 6
6 6 5 5 5 8 7 6 6 3 7 11 9 8 10 10 10 11 9 10 10 8 8 6 6 5 4 4 4 5 5 5 4 5 5 4 3 2 4 5 5 5 5 3 2 3 5 4 3 3 5 5 5 6 6 6 7 8 8 9 9 10 10 10 10 9 8 9 10 11 11 11 10 10 10 10 10 9 8 7 6 5 6 8 8
7 6 6 5 6 9 7 4 5 5 8 10 10 11 13 13 12 11 9 9 8 7 6 5 5 5 5 4 3 2 2 3 3 4 4 3 3 3 5 6 7 6 4 3 3 4 4 3 2 2 5 5 2 3 4 5 7 8 7 8 9 8 9 10 10 9 7 7 10 12 13 13 12 11 10 9 9 9 8 7 7 7 8 9 10
7 6 6 6 7 9 7 5 6 5 6 11 13 12 12 13 13 12 11 10 9 7 7 7 7 8 7 6 5 4 5 6 6 5 6 6 7 6 7 7 7 6 4 4 4 4 3 1 1 1 3 3 3 4 6 5 6 9 9 8 8 7 8 8 9 9 9 8 9 10 12 13 13 12 11 11 10 9 8 7 7 7 7 8 9
7 6 6 6 7 7 7 7 7 7 8 11 12 12 12 14 15 13 12 11 10 9 9 9 9 9 8 8 7 7 7 8 8 8 7 7 7 8 8 7 6 5 4 4 3 3 1 1 1 1 0 1 4 4 6 7 7 10 10 8 7 7 8 8 8 9 10 10 9 9 9 10 10 11 12 12 12 11 10 9 7 7 6 7 7
5 5 5 7 7 6 8 9 8 10 13 13 14 15 15 15 15 14 13 11 11 11 10 9 9 9 8 8 8 8 9 9 8 8 7 6 7 7 8 7 6 5 4 3 2 1 0 1 2 2 2 0 3 2 2 3 6 7 8 7 6 8 9 8 9 10 10 10 10 9 8 8 8 9 11 11 13 14 13 12 10 9 8 8 8
4 5 6 7 8 8 8 10 10 11 13 14 16 17 16 15 15 15 13 12 12 11 10 10 10 10 9 9 9 10 11 11 10 10 9 8 8 8 9 9 8 7 6 5 4 4 5 4 3 3 3 1 1 1 2 1 2 2 4 5 5 8 8 7 8 9 10 9 9 9 9 10 9 9 10 12 14 15 15 14 13 12 12 11 10
4 5 7 8 9 10 9 10 11 13 14 14 15 17 17 16 15 14 12 12 12 11 12 12 12 12 12 11 11 11 11 11 11 11 10 9 9 9 9 8 7 7 7 6 6 6 6 6 6 4 4 3 2 2 3 2 1 2 2 2 4 7 7 5 6 8 9 9 9 10 12 14 14 13 13 14 16 17 17 17 16 15 15 14 13
6 7 8 9 11 11 11 11 11 11 14 15 15 15 16 15 15 15 13 14 14 15 17 17 16 15 15 14 13 12 11 10 10 10 10 11 11 11 9 8 6 7 8 8 8 9 8 8 7 6 6 7 6 5 4 2 1 1 1 3 6 7 5 4 8 9 9 10 11 12 15 17 17 16 17 17 17 17 17 17 17 16 16 15 14
7 8 8 10 11 11 12 14 12 11 14 16 14 13 15 15 17 17 17 18 19 20 21 21 20 19 18 18 18 18 17 16 15 14 15 16 16 16 14 13 11 11 11 10 12 13 12 12 11 10 10 11 10 9 7 4 3 3 3 5 6 6 5 7 10 10 11 12 14 15 16 17 18 18 19 19 19 19 18 17 15 15 15 15 14
8 9 10 12 12 13 15 16 16 16 17 18 16 16 18 20 21 22 22 22 22 22 22 21 21 20 20 20 19 20 21 21 20 19 19 19 19 18 17 16 16 16 16 16 16 16 15 15 15 14 13 12 12 11 8 5 4 5 6 6 5 7 9 11 11 11 13 15 15 16 16 16 18 18 18 19 20 21 20 19 17 17 17 16 15
8 10 13 13 14 15 17 18 18 18 18 18 19 20 22 23 23 23 22 22 21 20 19 19 19 18 18 18 17 18 19 19 18 18 18 18 18 17 16 15 15 15 16 17 17 17 16 16 15 14 13 13 12 10 8 6 5 5 5 6 7 11 13 12 11 12 14 15 15 18 18 17 18 18 18 18 20 22 22 20 20 21 21 20 18
8 10 11 11 14 16 18 17 17 18 18 19 20 21 22 22 21 20 20 20 19 18 17 17 17 17 17 16 16 16 16 17 17 16 16 16 16 16 16 15 14 14 14 16 16 16 15 15 16 15 15 16 16 13 9 7 6 5 6 9 11 15 15 12 13 13 14 14 14 19 22 19 17 19 20 20 21 23 23 21 20 22 22 21 21
8 9 10 11 12 15 17 17 14 14 16 17 17 18 18 19 20 20 20 19 18 18 18 18 18 18 17 16 16 16 16 17 17 17 17 16 17 17 17 16 15 14 15 16 16 16 16 15 16 18 20 22 23 21 13 7 8 9 10 15 16 16 16 15 15 14 14 13 11 17 23 22 17 17 21 22 22 24 23 21 20 21 22 21 21
9 9 11 12 13 14 16 15 13 12 12 13 14 15 16 18 19 19 20 20 19 19 19 19 19 19 18 18 18 17 17 18 18 18 19 19 19 19 20 19 17 17 17 17 16 17 17 16 16 17 21 25 26 25 20 13 11 8 7 10 13 13 16 17 15 13 12 12 11 13 19 23 18 14 19 22 22 24 24 21 19 20 21 21 20
10 10 11 12 14 15 14 14 14 13 13 13 14 15 16 17 18 19 19 20 21 20 20 20 20 21 21 20 20 19 19 20 20 20 21 21 22 22 22 22 21 20 19 19 18 18 17 17 16 15 16 21 24 26 25 22 16 8 5 5 5 4 8 13 14 12 12 12 12 11 13 21 20 13 15 22 21 23 24 22 19 19 21 21 20
10 11 11 11 13 14 13 14 15 15 14 14 15 16 17 18 19 20 21 22 23 22 22 22 22 23 23 23 22 22 22 22 22 22 22 23 23 24 24 24 24 23 22 22 22 21 19 18 17 16 15 17 20 23 25 26 23 14 6 1 2 3 2 7 12 8 11 12 11 10 9 17 21 13 12 19 20 20 23 22 20 19 19 20 20
12 13 12 12 13 14 13 14 15 15 15 16 16 18 19 21 23 24 24 23 23 23 24 24 24 25 25 25 25 24 24 25 24 24 24 24 24 25 25 25 25 25 25 25 24 22 21 20 19 18 18 17 16 18 21 24 25 22 14 6 4 4 0 6 9 6 9 11 11 11 9 15 21 14 11 18 18 18 21 21 20 18 17 19 20
14 15 14 13 14 15 14 14 15 15 16 17 18 20 22 25 26 24 23 23 23 22 24 25 25 26 26 26 26 25 25 25 25 25 24 24 24 24 24 25 25 25 25 25 24 23 22 22 21 20 20 18 17 18 18 19 21 22 20 13 8 4 1 5 4 4 7 9 10 11 10 14 20 15 13 17 18 18 20 20 19 18 16 16 18
16 17 15 14 15 15 15 16 18 18 19 19 21 22 23 22 21 20 22 25 26 23 23 25 26 27 27 27 26 26 25 25 25 24 24 24 24 24 24 24 24 24 23 24 24 23 22 21 20 20 20 18 19 20 18 16 17 17 16 13 11 8 5 5 3 2 5 6 11 11 9 14 18 15 15 18 19 20 20 19 18 16 15 14 15
18 18 16 16 17 17 18 19 21 22 22 22 21 20 19 18 19 22 24 26 27 26 25 26 27 27 27 27 26 26 25 25 24 24 23 23 23 23 23 23 23 22 22 23 22 21 20 19 19 19 18 18 18 18 16 15 15 14 13 11 10 7 6 6 5 5 2 5 9 9 11 17 17 13 15 17 19 21 20 18 18 15 14 12 13
19 19 18 17 18 19 19 21 23 24 24 23 19 18 18 19 22 26 27 27 28 28 27 28 28 28 28 27 26 25 25 24 23 23 22 22 22 22 21 21 21 21 20 20 20 18 18 18 17 17 17 17 16 15 14 14 12 11 10 10 8 7 6 5 6 8 5 3 4 6 14 19 16 14 17 17 18 19 17 16 17 14 13 13 13
19 20 19 19 19 20 20 22 23 24 24 22 20 18 19 22 26 30 31 30 29 29 28 28 28 28 28 27 25 25 24 24 23 22 21 21 21 20 20 20 20 19 18 18 18 17 17 17 16 16 15 15 15 14 13 12 11 9 9 8 8 8 7 5 8 11 8 5 5 7 14 17 14 17 20 18 19 18 13 15 16 12 12 13 14
19 20 20 20 20 21 22 23 23 23 23 21 20 20 21 25 29 31 32 32 31 30 29 28 27 27 27 26 25 24 23 23 22 21 21 20 19 19 18 18 18 17 16 16 16 16 15 15 15 14 14 14 13 13 12 11 10 9 9 8 7 7 6 5 7 10 8 7 6 7 14 17 16 17 20 20 18 14 12 16 15 12 11 11 14
Wind_Direction
157 168 159 159 154 150 152 148 145 141 135 127 118 107 100 92 90 88 86 85 86 86 86 86 86 86 84 83 81 82 81 78 75 74 77 74 72 74 75 75 76 76 73 69 64 61 60 59 58 59 59 58 57 52 50 47 46 46 45 47 52 58 60 62 65 68 64 59 58 61 63 60 57 55 56 56 55 56 56 53 50 51 48 46 49
156 165 162 160 155 152 154 152 148 144 136 130 125 117 110 98 96 92 90 89 90 92 91 89 87 86 84 82 80 80 78 77 78 75 75 76 74 76 77 76 78 76 72 66 59 59 59 56 54 54 56 55 54 53 52 49 47 47 46 46 46 51 56 64 68 66 62 58 51 49 54 58 57 53 55 57 55 56 57 54 50 50 49 45 47
149 158 164 161 155 154 155 153 151 145 139 135 129 123 118 108 104 99 96 94 92 92 88 87 85 85 85 82 78 75 74 73 76 76 75 76 75 74 74 73 72 70 68 63 56 57 57 54 50 47 46 44 43 45 49 52 53 52 51 50 49 51 53 63 69 65 61 56 49 47 46 52 58 55 55 55 53 53 54 56 52 49 49 46 46
145 154 165 164 157 156 156 156 155 149 145 143 138 128 122 115 112 107 103 101 99 97 93 93 91 90 88 83 78 74 72 72 74 74 76 78 77 71 68 69 67 67 65 57 53 53 53 48 40 36 35 35 35 34 38 51 59 60 56 54 58 60 60 67 73 69 63 56 52 57 53 52 60 58 54 53 51 50 48 50 52 50 47 47 48
142 149 163 166 160 158 160 158 156 154 152 150 146 135 126 121 117 113 110 111 108 107 106 104 103 98 93 86 80 76 73 75 73 71 75 77 76 70 65 67 64 62 58 54 53 52 48 38 29 27 27 29 32 33 34 44 57 63 61 60 62 68 71 75 76 69 64 58 56 58 56 56 62 61 55 50 46 45 42 40 48 50 43 45 50
143 146 159 166 163 161 161 159 157 156 154 155 150 141 132 125 121 115 115 118 116 117 116 111 109 104 97 89 83 78 70 73 75 72 74 75 76 70 63 64 60 54 49 48 50 48 39 28 24 23 24 27 33 38 39 42 50 57 62 65 65 74 78 76 70 64 59 54 53 46 47 58 62 60 55 48 43 42 39 36 44 49 43 42 50
145 131 146 161 165 165 162 158 160 157 155 156 150 145 136 127 122 116 118 119 119 121 117 113 111 105 99 91 88 78 65 68 71 70 74 77 78 70 63 60 57 51 44 44 44 39 33 29 27 24 24 28 36 45 46 47 46 45 53 65 74 81 79 77 69 62 58 51 48 43 44 63 62 55 49 44 44 45 43 38 41 48 45 40 44
147 125 141 162 168 170 166 159 163 162 159 157 152 148 140 130 121 114 116 119 121 121 117 116 112 106 102 95 88 74 64 62 60 62 72 79 80 70 66 62 57 57 52 49 43 34 35 35 30 26 26 31 39 47 50 50 46 46 47 63 86 83 79 82 71 60 59 48 43 49 50 62 60 52 48 45 47 48 47 41 41 46 45 41 42
149 136 147 169 173 173 170 166 166 168 167 161 158 153 146 133 122 117 116 121 121 123 125 120 114 109 104 95 85 75 64 57 53 57 68 78 80 72 74 72 66 68 61 51 40 35 38 37 32 28 29 34 41 45 49 47 45 46 47 67 87 88 87 84 66 52 55 53 50 52 49 57 57 51 48 50 54 48 45 44 42 43 42 42 43
143 143 156 175 177 178 176 177 173 171 176 168 164 158 152 137 130 130 124 129 123 123 127 120 118 115 108 99 85 78 67 58 53 52 68 81 83 79 83 85 78 70 57 48 39 37 36 32 30 27 30 37 44 45 46 44 42 43 51 74 92 97 92 74 56 49 52 62 65 52 41 50 53 49 46 47 48 39 37 43 41 37 35 37 42
134 143 160 172 176 178 175 188 189 178 183 178 172 165 158 145 143 141 136 138 126 118 120 122 124 122 118 110 97 86 72 62 55 52 71 86 86 87 86 90 83 64 59 57 41 33 30 26 26 25 30 40 46 48 48 45 42 45 59 80 98 101 88 68 58 59 52 60 72 54 43 43 42 41 38 37 35 32 35 40 37 34 27 29 41
128 134 154 152 157 172 174 194 196 187 183 181 177 173 171 162 159 149 144 145 130 122 123 132 133 129 134 131 128 102 81 68 61 60 72 86 89 90 86 83 69 55 60 57 37 30 26 23 23 24 30 40 49 51 50 49 45 47 61 80 100 101 86 71 64 73 61 63 74 54 46 41 40 39 30 24 27 34 43 44 38 36 33 33 37
123 109 124 136 137 165 185 196 193 190 186 185 185 182 184 177 172 160 154 153 137 130 126 134 142 143 153 160 159 130 107 90 73 71 78 87 91 93 89 77 61 58 58 43 32 30 26 22 21 24 29 37 48 51 51 51 49 51 62 79 95 95 84 69 61 72 67 70 67 46 43 43 43 42 32 20 22 35 43 45 42 35 35 32 26
130 114 101 103 146 189 213 198 189 188 190 192 194 190 194 193 185 171 163 160 144 137 126 126 143 153 164 170 171 162 139 111 88 86 89 91 96 100 91 75 67 67 54 35 34 32 26 23 22 25 29 35 45 49 51 50 51 54 64 82 91 87 80 67 59 65 71 67 53 40 41 47 46 42 38 30 26 32 30 32 35 28 23 15 7
137 128 107 91 120 239 214 196 191 190 193 193 195 198 198 197 192 185 172 163 154 147 132 124 141 156 168 173 182 195 151 117 95 92 99 97 110 116 95 83 79 72 54 38 36 32 27 26 25 26 27 33 44 48 51 50 51 53 61 81 89 83 79 71 60 69 82 60 40 43 50 58 56 46 46 41 29 22 16 18 24 22 16 11 5
142 140 134 122 120 90 182 197 197 195 196 190 191 198 202 198 190 193 183 168 170 162 148 134 142 158 175 178 183 199 118 104 90 89 100 101 120 130 107 95 93 78 55 38 31 28 26 27 26 27 26 29 39 49 51 51 51 52 55 72 89 88 82 73 64 78 81 47 31 41 56 72 61 47 46 41 30 23 19 15 17 17 14 16 15
149 156 160 145 133 120 135 198 206 207 208 204 202 202 204 203 193 195 194 178 176 171 159 147 147 167 184 198 197 198 90 84 88 96 106 108 127 135 125 116 99 74 48 33 27 25 24 25 26 28 27 27 33 45 51 52 52 52 53 61 80 90 85 77 73 77 63 38 38 37 52 72 53 40 38 34 31 27 21 11 10 14 14 21 23
118 157 173 161 152 140 141 163 193 214 226 229 225 221 219 216 208 193 194 189 178 173 166 157 164 184 191 213 226 234 236 202 107 114 128 133 146 148 148 148 123 72 31 27 23 23 24 24 26 30 30 28 30 41 51 54 55 54 55 57 64 68 74 82 83 82 59 39 50 30 47 69 49 37 35 34 24 12 10 9 14 18 18 24 26
77 76 78 151 169 159 151 150 161 177 193 229 236 236 236 229 228 209 197 197 186 180 172 167 179 202 205 212 231 241 244 249 255 162 154 156 166 169 171 168 153 141 21 22 20 21 21 22 27 32 34 32 31 38 51 58 58 58 58 58 59 56 61 73 81 85 85 81 44 23 60 79 53 39 34 30 16 7 12 19 26 24 22 27 28
68 66 55 57 107 169 169 165 164 167 173 191 211 238 249 242 236 226 218 212 203 195 183 182 188 203 216 218 231 242 253 259 259 255 200 179 185 183 184 181 175 180 52 13 18 20 17 22 31 37 39 40 40 41 48 57 60 62 60 59 58 57 54 51 55 51 40 53 27 29 90 112 63 44 34 27 19 15 19 26 30 27 26 29 28
65 62 67 70 52 78 172 180 179 176 177 179 181 208 239 247 248 237 230 224 220 217 205 201 202 210 219 225 233 248 266 266 255 241 202 190 195 186 188 186 188 204 234 353 18 19 17 29 38 42 42 44 46 45 48 52 53 57 57 56 53 55 50 40 43 38 28 35 29 32 62 96 99 54 38 30 24 20 21 27 28 28 30 29 27
78 59 49 97 99 89 128 182 193 188 184 178 168 162 214 241 247 240 229 223 228 231 227 223 223 228 229 231 230 246 270 265 251 226 201 200 201 192 195 196 196 208 224 322 24 21 26 42 44 46 44 41 40 39 44 46 45 45 46 49 47 49 49 37 38 42 35 32 33 33 37 40 45 43 39 36 31 25 21 22 25 29 30 28 27
75 69 39 34 163 175 167 192 213 200 188 180 169 146 134 258 229 223 217 211 223 224 226 232 238 240 239 237 221 215 252 253 251 235 227 211 193 195 199 202 207 213 211 224 23 29 42 51 50 47 45 45 39 33 36 38 38 35 31 35 38 41 43 37 32 42 46 36 34 35 32 33 25 14 24 30 32 32 25 17 19 22 24 22 19
64 77 61 336 252 206 198 203 218 211 194 184 173 155 150 193 193 193 200 193 199 204 202 213 228 239 240 235 221 211 226 236 249 255 249 229 206 214 222 221 225 218 198 206 0 54 66 65 64 54 43 45 47 40 36 34 34 32 26 20 24 28 32 35 26 27 43 40 34 35 33 31 29 23 12 8 8 21 34 24 16 14 18 12 4
72 98 78 338 297 236 210 208 209 209 200 187 174 163 163 173 181 178 186 186 193 196 190 197 204 218 225 219 220 219 219 227 255 254 238 230 230 237 243 234 227 210 199 208 174 93 82 76 78 76 50 38 44 48 41 35 31 29 28 21 17 12 7 22 23 13 24 32 29 28 29 25 24 24 16 11 3 6 26 26 21 16 15 9 357
46 24 40 350 318 318 203 195 195 197 196 186 173 168 165 163 172 166 165 171 188 192 186 193 194 196 198 201 209 201 203 214 241 253 224 218 232 241 251 226 210 199 208 213 186 113 90 88 99 108 63 37 43 50 47 42 37 33 34 29 20 10 359 3 13 3 360 12 18 17 17 15 13 13 12 13 7 5 6 12 26 15 360 359 355
38 28 28 355 342 5 33 113 147 195 189 178 169 166 159 163 178 164 157 151 156 165 159 164 168 175 182 188 191 172 180 190 187 226 218 198 210 226 238 230 238 247 220 217 220 204 177 134 128 122 48 43 43 47 52 45 37 34 37 39 31 21 12 4 12 8 352 350 357 5 4 3 3 2 2 1 359 359 356 355 20 4 344 336 340
41 30 21 11 11 22 36 72 59 218 178 156 149 156 160 171 177 164 163 154 148 143 132 134 140 149 170 185 192 179 187 194 191 212 211 203 204 200 198 199 204 210 214 224 238 218 202 181 136 95 48 44 30 34 48 44 35 32 35 42 37 28 26 17 18 23 9 353 353 1 1 357 356 354 354 352 349 346 343 332 305 301 325 321 323
39 27 25 31 30 34 43 70 69 110 154 146 151 173 176 173 165 155 158 154 147 138 130 136 127 122 144 165 184 188 198 204 209 220 224 232 232 202 187 184 169 171 195 212 234 217 206 184 137 98 82 70 35 35 37 24 26 35 37 44 42 29 29 23 23 33 23 2 355 1 5 4 360 356 353 350 348 345 341 333 312 278 283 297 294
33 30 37 45 45 45 44 70 102 140 158 166 175 170 164 164 158 144 136 135 133 125 124 128 116 109 110 119 138 144 144 148 160 193 209 204 190 174 166 167 163 166 174 155 161 196 204 192 176 129 116 110 105 86 48 5 7 26 31 46 51 32 31 27 24 35 30 13 8 7 8 8 9 5 2 359 355 351 347 340 332 309 292 293 284
32 39 43 48 56 54 53 84 111 120 146 162 160 151 148 149 144 134 126 124 121 116 116 119 119 110 98 96 108 113 117 123 127 137 148 151 153 155 151 151 152 152 157 154 155 170 188 215 218 167 131 124 159 135 86 50 9 8 10 34 48 30 38 37 21 26 33 32 26 21 16 13 13 8 6 9 4 356 353 343 339 335 315 304 296
37 43 45 51 67 67 69 100 114 99 122 149 145 138 136 135 134 131 130 130 129 125 119 113 108 101 96 93 92 102 121 128 127 129 136 139 140 145 143 141 139 133 145 157 159 174 218 301 96 135 130 142 176 155 98 69 31 8 359 22 35 20 35 39 21 22 32 34 28 32 31 21 14 6 10 14 5 357 354 349 344 343 335 322 316
44 53 61 62 80 90 83 102 124 113 120 136 139 135 128 128 130 128 128 131 132 130 123 115 107 100 99 97 96 104 114 119 122 120 119 115 117 122 120 116 114 110 112 124 137 149 5 31 49 22 345 224 177 161 101 68 43 15 357 16 28 25 34 30 21 23 32 32 26 32 30 19 16 13 22 18 4 1 360 357 354 346 340 334 330
65 74 78 74 90 110 100 103 124 130 124 125 134 136 130 131 130 123 122 127 130 126 122 122 120 116 113 111 114 112 107 106 108 109 106 104 106 103 100 99 98 100 99 92 86 75 71 71 61 40 25 52 109 351 335 341 92 61 28 34 25 32 39 25 19 25 36 38 29 30 25 22 27 28 34 25 15 17 17 13 8 2 356 350 345
93 89 87 90 101 116 120 111 115 130 135 130 129 130 128 129 127 121 121 123 123 120 118 120 121 121 119 117 116 113 108 107 107 108 109 110 111 108 104 104 104 107 105 97 91 85 83 89 89 65 43 52 39 1 341 328 222 186 95 60 29 48 60 36 25 30 43 49 41 38 39 40 39 39 39 32 26 26 25 23 19 17 13 8 4
108 95 93 105 106 109 123 126 118 121 130 129 125 123 122 123 123 123 122 119 117 115 113 111 112 112 111 110 107 104 99 99 106 112 113 109 104 101 99 103 111 115 114 110 103 92 88 98 104 84 63 63 56 51 45 27 5 314 37 46 41 61 74 44 45 50 52 53 52 48 46 44 40 39 36 29 27 26 25 24 21 19 15 14 14
108 101 106 114 112 113 123 129 129 130 130 126 123 124 123 123 122 121 120 117 115 113 110 107 107 106 104 104 103 101 95 89 93 99 102 98 92 88 85 84 86 91 96 97 93 88 84 86 87 79 69 62 52 48 47 50 58 51 63 57 50 65 65 58 63 59 53 57 58 51 42 40 39 39 32 26 28 29 27 26 23 21 14 12 14
107 109 113 111 111 117 120 121 123 126 127 125 126 128 127 124 120 118 117 114 112 109 107 106 105 105 104 103 104 104 101 96 93 95 97 96 93 89 85 83 83 86 87 85 81 77 75 72 68 60 55 51 43 32 21 23 54 64 75 78 70 68 63 65 68 62 63 66 60 50 48 49 46 42 36 30 30 30 28 29 30 29 24 21 19
116 117 111 106 107 109 110 112 114 115 117 120 124 125 122 120 117 117 115 112 110 107 104 104 103 105 104 104 106 106 106 105 100 100 99 97 95 92 90 88 90 92 91 88 82 74 69 65 61 53 47 48 42 28 14 22 51 52 66 92 84 67 64 67 69 70 73 73 61 51 56 62 53 45 43 39 33 30 29 31 34 33 30 30 28
123 118 108 107 111 109 106 106 108 112 117 118 120 121 117 116 115 114 112 108 109 108 106 106 105 105 104 104 105 104 106 106 104 102 100 98 96 93 92 90 91 93 91 88 85 81 76 66 59 55 57 55 47 41 39 44 56 56 81 103 88 67 67 70 71 75 75 73 62 48 50 58 56 44 42 43 37 31 30 31 34 33 31 31 30
128 126 119 116 118 119 117 114 113 117 120 119 119 120 120 120 116 113 109 106 108 110 108 108 108 107 106 106 105 104 107 107 105 103 99 98 96 95 93 90 89 88 86 86 87 88 88 78 64 58 61 57 48 44 48 62 64 61 82 102 96 75 73 77 73 72 70 66 53 39 38 43 49 41 34 37 36 31 29 29 32 31 30 30 28
137 144 139 132 133 133 128 127 133 134 129 129 128 125 127 129 125 121 117 112 110 111 108 106 108 108 107 106 105 106 108 107 106 104 101 98 96 95 91 89 87 87 89 91 93 94 91 88 76 64 58 56 51 45 46 53 50 47 73 101 104 85 75 75 70 69 65 52 39 34 30 30 38 38 23 25 30 28 27 27 27 28 28 29 27
146 148 147 143 144 143 139 140 147 150 148 148 146 140 139 139 134 130 127 119 110 110 109 107 109 109 107 105 104 105 106 105 105 104 102 99 97 94 92 90 88 88 90 89 91 92 89 86 82 76 63 56 54 48 48 49 43 49 85 96 113 98 66 49 40 54 61 46 37 33 20 19 27 33 15 14 21 20 21 23 23 24 25 26 25
150 147 147 149 151 149 149 153 156 157 158 159 156 151 144 139 133 128 125 117 111 112 112 108 108 106 104 103 102 102 103 103 103 102 102 101 99 98 95 93 90 88 88 86 85 85 85 85 83 83 75 64 57 49 51 53 49 51 63 52 37 60 67 358 352 23 56 45 32 24 10 6 16 28 9 6 14 11 11 17 18 19 21 23 22
155 153 151 154 156 154 156 161 162 159 158 157 155 151 144 135 128 121 117 112 109 110 109 104 104 105 103 103 102 103 104 104 103 103 103 102 101 99 97 95 92 90 88 86 85 83 83 83 81 81 78 76 72 61 55 58 58 56 55 54 40 50 168 331 338 351 28 27 15 8 0 357 6 16 359 358 7 3 2 10 13 14 17 19 18
164 161 155 158 159 155 156 158 155 151 148 148 148 147 141 134 127 122 120 116 109 106 106 105 106 106 105 105 105 106 105 104 104 102 102 101 100 99 97 95 93 91 89 87 86 84 82 80 80 81 79 78 79 73 63 61 67 66 64 68 68 75 356 354 3 330 343 360 3 357 348 349 355 360 352 352 358 355 357 4 7 10 13 14 12
169 166 158 158 158 154 154 151 145 141 137 138 140 140 137 134 133 132 130 124 115 110 111 111 111 110 109 109 109 108 106 105 104 102 102 101 100 99 96 95 93 90 89 87 83 81 80 78 78 78 78 76 74 71 63 60 66 66 68 71 69 72 46 27 47 343 320 325 345 348 341 343 347 349 346 346 348 348 350 356 1 4 9 10 3
171 168 162 159 158 156 156 154 149 144 140 139 142 144 145 147 147 141 132 126 122 120 119 116 114 115 113 112 110 109 107 105 104 103 102 100 98 97 95 94 92 90 88 85 84 82 81 79 77 76 75 72 70 70 65 60 60 58 62 66 64 67 51 42 41 12 326 284 325 338 331 335 341 343 339 339 341 341 343 350 354 356 3 3 350
172 169 166 163 161 159 159 158 154 151 149 150 156 160 160 158 153 143 133 128 126 124 123 120 118 118 115 113 112 111 109 107 105 104 102 100 98 97 95 93 90 89 88 86 85 82 80 76 73 71 70 69 68 68 68 65 64 60 58 54 50 52 44 37 18 2 349 299 312 326 326 332 337 335 333 334 334 335 336 341 345 349 356 353 341
172 172 170 166 164 162 161 160 159 158 158 161 164 164 163 160 154 145 137 133 130 128 126 123 122 121 118 117 116 114 113 111 109 107 105 103 101 98 95 92 90 88 86 85 83 78 75 73 70 68 66 67 67 65 67 67 65 63 59 51 42 34 25 11 358 356 353 327 312 316 321 328 328 324 328 332 332 335 335 332 334 337 341 343 338
171 172 171 167 165 164 163 162 162 163 163 165 164 161 163 160 153 145 140 137 136 134 131 128 128 127 123 122 121 119 117 115 114 112 109 105 103 99 95 93 90 88 84 80 79 75 72 70 67 66 63 62 62 61 60 58 56 54 52 52 48 38 27 3 347 346 343 328 320 312 312 318 316 312 320 329 333 338 333 326 326 328 335 333 329